Regional Weather Roundup
Issued by NWS Cleveland, OH

Home | Current Version | Previous Version | Text Only | Print | Product List | Glossary Off
Versions: 1 2 3 4 5 6 7 8 9 10 11 12 13 14 15 16 17 18 19 20 21 22 23 24 25 26 27 28 29 30 31 32 33 34 35 36 37 38 39 40 41 42 43 44 45 46 47 48 49 50

000
ASUS41 KCLE 231610
RWRCLE
OHIO REGIONAL WEATHER ROUNDUP
NATIONAL WEATHER SERVICE CLEVELAND, OH
1200 PM EDT TUE SEP 23 2014

NOTE: "FAIR" INDICATES FEW OR NO CLOUDS BELOW 12,000 FEET WITH NO
SIGNIFICANT WEATHER AND/OR OBSTRUCTIONS TO VISIBILITY.

OHZ001>008-015>018-024>027-034-035-043-044-231700-
   NORTHWEST OHIO

CITY           SKY/WX    TMP DP  RH WIND       PRES   REMARKS
DEFIANCE       SUNNY    N/A N/A N/A CALM      30.37S
FINDLAY        SUNNY     64  44  48 CALM      30.36S
TOLEDO EXPRESS SUNNY     63  45  51 CALM      30.37S
TOLEDO EXEC    SUNNY     64  45  49 VRB3      30.37S
LIMA           SUNNY     64  45  49 CALM      30.36S
$$

OHZ009>014-019>023-028>033-038-089-231700-
   NORTHEAST OHIO

CITY           SKY/WX    TMP DP  RH WIND       PRES   REMARKS
CLE-HOPKINS    MOSUNNY   63  48  58 CALM      30.39S
CLE-LAKEFRONT  SUNNY     61  47  59 W7        30.36S
CUY CO. ARPT   MOSUNNY   63  48  59 NW5       30.37S
LORAIN-ELYRIA  SUNNY     66  46  48 CALM      30.37F
ASHTABULA      SUNNY     63  50  62 VRB5      30.37S
AKRON-CANTON   SUNNY     61  44  53 CALM      30.38R
WOOSTER        SUNNY     61  45  55 S6        30.39R
MANSFIELD      SUNNY     62  45  53 E6        30.37S
YOUNGSTOWN     MOSUNNY   60  46  59 CALM      30.38S
$$

OHZ042-051>053-060>062-070>072-077>081-231700-
  SOUTHWEST OHIO

CITY           SKY/WX    TMP DP  RH WIND       PRES   REMARKS
CINC-COVINGTON SUNNY     65  43  44 NE7       30.35F
CINC-LUNKEN    SUNNY     65  44  46 N8        30.36F
HAMILTON       SUNNY     65  46  50 VRB5      30.37F
DAYTON         SUNNY     65  43  44 E5        30.38S
WRIGHT-PAT AFB SUNNY     64  43  47 VRB3      30.37S
DAYTON GENERAL SUNNY     63  45  51 SE7       30.36S
WILMINGTON     SUNNY     63  42  46 VRB3      30.36S
$$

OHZ036-037-039>041-045>050-054>059-063>069-073>076-082>088-231700-
  CENTRAL AND SOUTHEAST OHIO

CITY           SKY/WX    TMP DP  RH WIND       PRES   REMARKS
COLUMBUS       MOSUNNY   64  43  46 CALM      30.37S
OSU AIRPORT    SUNNY     62  43  49 VRB3      30.37S
BOLTON FIELD   SUNNY    N/A  45   0 E3        30.38S
RICKENBACK AFB SUNNY     61  44  52 S3        30.37S
NEWARK         SUNNY     61  44  53 CALM      30.37S
MARION         SUNNY     62  44  51 VRB6      30.37S
LANCASTER      SUNNY     63  43  48 CALM      30.37F
ZANESVILLE     SUNNY     61  42  49 MISG      30.37S
NEW PHILLY     SUNNY     60  46  59 E5        30.39R
$$



USA.gov is the U.S. government's official web portal to all federal, state and local government web resources and services.